Saranac Lake, NY

8:27 PM EDT on June 25, 2017 (GMT -0400)
Adirondack Regional

Weather History for KSLK - July, 2012

Change the Weather History Date:

Saturday, July 21, 2012

  Actual Average Record
Temperature  
Mean Temperature 60 °F 64 °F  
Max Temperature 78 °F 76 °F 89 °F (2011)
Min Temperature 42 °F 51 °F 36 °F (1950)
Degree Days  
Heating Degree Days 6 3  
Month to date heating degree days 63  
Since 1 June heating degree days 247  
Since 1 July heating degree days 63  
Cooling Degree Days 0 1  
Month to date cooling degree days 37 36  
Year to date cooling degree days 94 65  
Since 1 June cooling degree days 78 62  
Growing Degree Days 10 (Base 50)    
Moisture  
Dew Point 49 °F    
Average Humidity 68    
Maximum Humidity 100    
Minimum Humidity 36    
Precipitation  
Precipitation 0.00 in 0.14 in 1.03 in (1954)
Month to date precipitation 2.81 2.83  
Year to date precipitation 17.76 19.03  
Sea Level Pressure  
Sea Level Pressure 30.08 in    
Wind  
Wind Speed 4 mph (WSW)    
Max Wind Speed 15 mph    
Max Gust Speed 21 mph    
Visibility 10 miles    
Events      
T = Trace of Precipitation, MM = Missing Value Source: NWS Daily Summary

Daily Weather History Graph

Daily Weather History Graph

Search for Another Location

Airport or City:

Trip Planner

Search our weather history database for the weather conditions in past years. The results will help you decide how hot, cold, wet, or windy it might be!

Date:

Astronomy

Jul. 21, 2012 Rise Set
Actual Time 5:32 AM EDT 8:33 PM EDT
Civil Twilight 4:58 AM EDT 9:07 PM EDT
Nautical Twilight 4:13 AM EDT 9:51 PM EDT
Astronomical Twilight 3:21 AM EDT 10:44 PM EDT
Moon 8:19 AM EDT (7/21) 9:33 PM EDT (7/21)
Length of Visible Light 16h 09m
Length of Day
15h 00m
Waxing Crescent, 7% of the Moon is Illuminated
Jul 21
Waxing Crescent
Jul 26
First Quarter
Aug 1
Full
Aug 9
Last Quarter
Aug 17
New

Hourly Weather History & Observations

Time (EDT) Temp. Dew Point Humidity Pressure Visibility Wind Dir Wind Speed Gust Speed Precip Events Conditions
12:51 AM 46.9 °F 45.0 °F 93% 30.09 in 10.0 mi Calm Calm - N/A   Clear
1:51 AM 45.0 °F 44.1 °F 97% 30.10 in 10.0 mi Calm Calm - N/A   Clear
2:51 AM 44.1 °F 43.0 °F 96% 30.10 in 10.0 mi Calm Calm - N/A   Partly Cloudy
3:51 AM 44.1 °F 42.1 °F 93% 30.10 in 10.0 mi Calm Calm - N/A   Partly Cloudy
4:51 AM 43.0 °F 41.0 °F 93% 30.09 in 10.0 mi Calm Calm - N/A   Clear
5:51 AM 42.1 °F 41.0 °F 96% 30.10 in 10.0 mi Calm Calm - N/A   Clear
6:51 AM 48.0 °F 46.0 °F 93% 30.10 in 10.0 mi Calm Calm - N/A   Clear
7:51 AM 55.9 °F 50.0 °F 80% 30.10 in 10.0 mi Calm Calm - N/A   Scattered Clouds
8:51 AM 62.1 °F 53.1 °F 72% 30.11 in 10.0 mi Calm Calm - N/A   Partly Cloudy
9:51 AM 68.0 °F 54.0 °F 61% 30.10 in 10.0 mi SSW 5.8 mph - N/A   Clear
10:51 AM 70.0 °F 55.9 °F 61% 30.10 in 10.0 mi WSW 6.9 mph - N/A   Partly Cloudy
11:51 AM 73.0 °F 53.1 °F 49% 30.09 in 10.0 mi WSW 10.4 mph - N/A   Clear
12:51 PM 75.0 °F 53.1 °F 46% 30.09 in 10.0 mi WSW 9.2 mph - N/A   Partly Cloudy
1:51 PM 75.0 °F 50.0 °F 41% 30.08 in 10.0 mi West 8.1 mph - N/A   Partly Cloudy
2:51 PM 77.0 °F 50.0 °F 39% 30.06 in 10.0 mi SW 11.5 mph 16.1 mph N/A   Clear
3:51 PM 77.0 °F 48.0 °F 36% 30.06 in 10.0 mi Variable 6.9 mph - N/A   Clear
4:51 PM 75.9 °F 46.9 °F 36% 30.06 in 10.0 mi Variable 6.9 mph - N/A   Clear
5:51 PM 75.9 °F 46.9 °F 36% 30.06 in 10.0 mi WNW 6.9 mph - N/A   Clear
6:51 PM 75.0 °F 48.0 °F 38% 30.04 in 10.0 mi Variable 6.9 mph - N/A   Clear
7:51 PM 69.1 °F 50.0 °F 51% 30.04 in 10.0 mi Calm Calm - N/A   Clear
8:51 PM 63.0 °F 53.1 °F 70% 30.04 in 10.0 mi Calm Calm - N/A   Clear
9:51 PM 60.1 °F 54.0 °F 80% 30.06 in 10.0 mi Calm Calm - N/A   Clear
10:51 PM 57.0 °F 52.0 °F 83% 30.06 in 10.0 mi Calm Calm - N/A   Scattered Clouds
11:51 PM 60.1 °F 55.0 °F 83% 30.06 in 10.0 mi Calm Calm - N/A   Overcast